Regional Weather Roundup
Issued by NWS

Home | Current Version | Previous Version | Graphics & Text | Print | Product List | Glossary On
Versions: 1 2 3 4 5 6 7 8 9 10 11 12 13 14 15 16 17 18 19 20 21 22 23 24 25 26 27 28 29 30 31 32 33 34 35 36 37 38 39 40 41 42 43 44 45 46 47 48 49 50
000
ASUS44 KMEG 200010
RWRTN
TENNESSEE HOURLY STATE WEATHER ROUNDUP
NATIONAL WEATHER SERVICE MEMPHIS TN
700 PM CDT THU APR 19 2018

TNZ002-004-019-021-049-052-054-088>092-200100-
WEST TENNESSEE

CITY           SKY/WX    TMP DP  RH WIND       PRES   REMARKS
MEMPHIS INTL   FAIR      51  31  46 N15       30.34R
NWS MEMPHIS      N/A     51 N/A N/A MISG        N/A
JACKSON        FAIR      53  32  44 N12       30.33R
DYERSBURG      FAIR      51  33  50 N13       30.36S
SOMERVILLE     CLEAR     52  30  43 N9        30.31S
COVINGTON      CLEAR     50  34  53 NE14      30.35S
UNION CITY     CLEAR     50  32  50 N12G17    30.35S
BOLIVAR        CLEAR     52  30  43 NW9       30.31S
PARIS          CLEAR     48  32  53 N9G17     30.35R
HUNTINGDON     CLEAR     50  32  50 N9G15     30.33S
LEXINGTON      CLEAR     52  30  43 N8G15     30.31R
SELMER         CLEAR     52  30  43 N10G17    30.29R
SAVANNAH       CLEAR     52  30  43 N10       30.29R
$$

TNZ008-025-027-028-033-062-065-066-200100-
NORTH MIDDLE TENNESSEE

CITY           SKY/WX    TMP DP  RH WIND       PRES   REMARKS
NASHVILLE      FAIR      49  31  49 N13       30.32S
PORTLAND       CLEAR     48  32  53 N9        30.32S
CLARKSVILLE    FAIR      47  31  53 N10       30.34F
SMYRNA         FAIR      49  32  52 N14       30.32S
COOKEVILLE     CLEAR     48  30  49 N10       30.28R
LIVINGSTON     CLEAR     43  28  56 N10       30.29R
GALLATIN       CLEAR     48  32  53 N12       30.35S
CROSSVILLE     FAIR      43  28  55 N10       30.26R
ROCKWOOD       CLEAR     45  28  53 N15G21    30.25R
$$

TNZ061-075-076-078-094-096-097-200100-
SOUTH MIDDLE TENNESSEE

CITY           SKY/WX    TMP DP  RH WIND       PRES   REMARKS
LEWISBURG      CLEAR     48  32  53 N9G16     30.29R
FAYETTEVILLE   CLEAR     48  30  49 N12       30.25S
TULLAHOMA      CLEAR     48  30  49 N10       30.26R
WINCHESTER     CLEAR     50  30  46 N10G17    30.25R
MCMINNVILLE    CLEAR     48  30  49 N10G18    30.27S
COLUMBIA       CLEAR     50  30  46 N7G13     30.28S
SHELBYVILLE    CLEAR     48  32  53 N15       30.28R
$$

TNZ017-018-042-046-047-200100-
NORTHEAST TENNESSEE

CITY           SKY/WX    TMP DP  RH WIND       PRES   REMARKS
TRI CITIES     FAIR      44  29  55 N10       30.25R
ELIZABETHTON   FAIR      45  27  49 NW6       30.24R
$$

TNZ012-013-036-069-073-074-200100-
CENTRAL EAST TENNESSEE

CITY           SKY/WX    TMP DP  RH WIND       PRES   REMARKS
KNOXVILLE      FAIR      49  30  48 N16       30.24R
OAK RIDGE      FAIR      48  31  51 VRB6      30.28R
DOWNTOWN KNOXV CLEAR     48  30  49 VRB7      30.27R
GATLINBURG     CLEAR     48  28  46 N6G12     30.25R
MORRISTOWN     CLEAR     46  28  49 N9G16     30.25R
JACKSBORO      CLOUDY    45  30  57 N8        30.32S
$$

TNZ083-085-099-200100-
SOUTHEAST TENNESSEE

CITY           SKY/WX    TMP DP  RH WIND       PRES   REMARKS
CHATTANOOGA    FAIR      55  30  38 N17       30.22S
DAYTON         CLEAR     54  34  47 N17       30.23R
$$

SKY/WX REPORTED AS FAIR MEANS FEW OR NO CLOUDS BELOW
12 THOUSAND FEET.




USA.gov is the U.S. government's official web portal to all federal, state and local government web resources and services.